Location: Buch
(49.7331°N, 12.1098°E)
Time: 10:06:22
(UTC+00:00)

CZ-4C R/B - Pass Details

Date: 12 May 2021
Orbit: 609 x 1392 km, 63.4° (Epoch: 13 June)

Event Time Altitude Azimuth Distance (km) Brightness Sun altitude
Rises 21:01:31 0° 314° (NW) 3,874 7.2 -16.4°
Reaches altitude 10° 21:04:13 10° 306° (NW) 3,025 6.1 -16.6°
Maximum altitude 21:10:49 37° 243° (WSW) 1,876 4.0 -17.1°
Enters shadow 21:16:27 17° 187° (S) 2,884 4.5 -17.6°
